Location: La Brionne
(46.1728°N, 1.7849°E)
Time: 17:03:28
(UTC+00:00)

USA 215 - Pass Details

Date: 01 November 2021
Orbit: 1099 x 1109 km, 123.0° (Epoch: 20 November)

Event Time Altitude Azimuth Distance (km) Brightness Sun altitude
Exits shadow 18:35:28 24° 49° (NE) 2,091 4.3 -20.7°
Maximum altitude 18:39:39 78° 327° (NNW) 1,129 3.3 -21.4°
Drops below altitude 10° 18:46:11 10° 242° (WSW) 2,959 6.3 -22.6°
Sets 18:48:39 0° 241° (WSW) 3,916 7.1 -23.0°
